| time (UTC) | temp F | wind direction | speed MPH | gust MPH | rain 1hr in | rain 24hr in | rain mn in | humidity % | barometer mb |
| 20260506121502 | 50 | 16 | 0.0 | 0.0 | 0.00 | 0.00 | 0.00 | 80 | 1003.9 |
| 20260506113000 | 50 | 146 | 1.0 | 0.0 | 0.00 | 0.00 | 0.00 | 78 | 1003.6 |
| 20260506111502 | 50 | 51 | 2.0 | 0.0 | 0.00 | 0.00 | 0.00 | 78 | 1003.5 |
| 20260506110002 | 50 | 4 | 1.0 | 0.0 | 0.00 | 0.00 | 0.00 | 78 | 1003.3 |
| 20260506104500 | 50 | 41 | 1.0 | 0.0 | 0.00 | 0.00 | 0.00 | 78 | 1003.6 |
| 20260506103001 | 50 | 1 | 2.0 | 0.0 | 0.00 | 0.00 | 0.00 | 77 | 1003.4 |
| 20260506101502 | 50 | 200 | 1.0 | 0.0 | 0.00 | 0.00 | 0.00 | 81 | 1003.3 |
| 20260506100000 | 50 | 260 | 0.0 | 0.0 | 0.00 | 0.00 | 0.00 | 82 | 1003.0 |
| 20260506094502 | 50 | 245 | 0.0 | 0.0 | 0.00 | 0.00 | 0.00 | 81 | 1003.0 |
| 20260506093000 | 50 | 242 | 0.0 | 0.0 | 0.00 | 0.00 | 0.00 | 82 | 1003.1 |
| 20260506091502 | 50 | 54 | 2.0 | 0.0 | 0.00 | 0.00 | 0.00 | 83 | 1003.0 |
| 20260506090002 | 50 | 22 | 0.0 | 0.0 | 0.00 | 0.00 | 0.00 | 83 | 1002.8 |
| 20260506084502 | 50 | 29 | 0.0 | 0.0 | 0.00 | 0.00 | 0.00 | 83 | 1002.9 |
| 20260506083001 | 50 | 284 | 1.0 | 0.0 | 0.00 | 0.00 | 0.00 | 83 | 1002.6 |
| 20260506081500 | 50 | 276 | 0.0 | 0.0 | 0.00 | 0.00 | 0.00 | 84 | 1002.7 |
| 20260506073000 | 50 | 240 | 0.0 | 0.0 | 0.00 | 0.00 | 0.00 | 85 | 1002.4 |
| 20260506071500 | 50 | 191 | 0.0 | 0.0 | 0.00 | 0.00 | 0.00 | 86 | 1002.3 |
| 20260506061500 | 48 | 257 | 0.0 | 0.0 | 0.00 | 0.00 | 0.00 | 90 | 1002.3 |
| 20260506044502 | 48 | 55 | 0.0 | 0.0 | 0.00 | 0.00 | 0.00 | 91 | 1001.9 |
| 20260506043002 | 48 | 244 | 0.0 | 0.0 | 0.00 | 0.00 | 0.00 | 91 | 1001.9 |
| 20260506041500 | 50 | 252 | 1.0 | 0.0 | 0.00 | 0.00 | 0.00 | 90 | 1002.0 |
| 20260506040002 | 50 | 116 | 1.0 | 0.0 | 0.00 | 0.00 | 0.00 | 89 | 1002.1 |
| 20260506034502 | 50 | 116 | 0.0 | 0.0 | 0.00 | 0.00 | 0.00 | 87 | 1001.8 |
| 20260506033001 | 50 | 244 | 0.0 | 0.0 | 0.00 | 0.00 | 0.00 | 88 | 1002.0 |
| 20260506031501 | 50 | 216 | 2.0 | 0.0 | 0.00 | 0.00 | 0.00 | 89 | 1002.0 |
| 20260506030002 | 50 | 247 | 0.0 | 0.0 | 0.00 | 0.00 | 0.00 | 89 | 1002.3 |
| 20260506024502 | 50 | 259 | 0.0 | 0.0 | 0.00 | 0.00 | 0.00 | 89 | 1002.3 |
| 20260506023002 | 50 | 247 | 0.0 | 0.0 | 0.00 | 0.00 | 0.00 | 89 | 1002.3 |
| 20260506021501 | 50 | 171 | 1.0 | 0.0 | 0.00 | 0.00 | 0.00 | 89 | 1002.6 |
| 20260506010000 | 50 | 219 | 1.0 | 0.0 | 0.00 | 0.00 | 0.00 | 87 | 1002.9 |
| 20260506004502 | 50 | 260 | 1.0 | 0.0 | 0.00 | 0.00 | 0.00 | 87 | 1003.2 |
| 20260506003002 | 50 | 244 | 0.0 | 0.0 | 0.00 | 0.00 | 0.00 | 87 | 1003.2 |
| 20260506001500 | 50 | 265 | 1.0 | 0.0 | 0.00 | 0.00 | 0.00 | 87 | 1003.3 |
| 20260506000000 | 50 | 266 | 0.0 | 0.0 | 0.00 | 0.00 | 0.00 | 87 | 1003.4 |
| 20260505234500 | 50 | 221 | 1.0 | 0.0 | 0.00 | 0.00 | 0.00 | 85 | 1003.5 |
| 20260505233002 | 50 | 266 | 0.0 | 0.0 | 0.00 | 0.00 | 0.00 | 84 | 1003.6 |
| 20260505231501 | 50 | 237 | 1.0 | 0.0 | 0.00 | 0.00 | 0.00 | 84 | 1003.7 |
| 20260505230000 | 50 | 264 | 0.0 | 0.0 | 0.00 | 0.00 | 0.00 | 83 | 1003.7 |
| 20260505224500 | 50 | 255 | 1.0 | 0.0 | 0.00 | 0.00 | 0.00 | 83 | 1003.8 |
| 20260505223002 | 50 | 232 | 1.0 | 0.0 | 0.00 | 0.00 | 0.00 | 84 | 1004.0 |
| 20260505221500 | 50 | 234 | 0.0 | 0.0 | 0.00 | 0.00 | 0.00 | 84 | 1004.0 |
| 20260505220000 | 50 | 207 | 1.0 | 0.0 | 0.00 | 0.00 | 0.00 | 84 | 1003.8 |
| 20260505214502 | 50 | 250 | 0.0 | 0.0 | 0.00 | 0.00 | 0.00 | 85 | 1003.9 |
| 20260505213001 | 50 | 244 | 1.0 | 0.0 | 0.00 | 0.00 | 0.00 | 84 | 1004.3 |
| 20260505211502 | 50 | 248 | 0.0 | 0.0 | 0.00 | 0.00 | 0.00 | 84 | 1004.4 |
| 20260505210002 | 50 | 216 | 1.0 | 0.0 | 0.00 | 0.00 | 0.00 | 85 | 1004.3 |
| 20260505204500 | 50 | 237 | 0.0 | 0.0 | 0.00 | 0.00 | 0.00 | 85 | 1004.4 |
| 20260505203002 | 50 | 235 | 0.0 | 0.0 | 0.00 | 0.00 | 0.00 | 85 | 1004.6 |
| 20260505201500 | 50 | 255 | 1.0 | 0.0 | 0.00 | 0.00 | 0.00 | 85 | 1004.6 |
| 20260505200000 | 50 | 192 | 1.0 | 0.0 | 0.00 | 0.00 | 0.00 | 85 | 1004.3 |
| 20260505194500 | 50 | 271 | 2.0 | 0.0 | 0.00 | 0.00 | 0.00 | 85 | 1004.6 |
| 20260505193000 | 50 | 56 | 0.0 | 0.0 | 0.00 | 0.00 | 0.00 | 85 | 1004.5 |
| 20260505191502 | 52 | 266 | 0.0 | 0.0 | 0.00 | 0.00 | 0.00 | 86 | 1004.2 |
| 20260505190003 | 52 | 12 | 2.0 | 0.0 | 0.00 | 0.00 | 0.00 | 86 | 1004.1 |
| 20260505181502 | 54 | 333 | 1.0 | 0.0 | 0.00 | 0.00 | 0.00 | 84 | 1004.0 |
| 20260505180000 | 54 | 232 | 2.0 | 0.0 | 0.00 | 0.00 | 0.00 | 83 | 1004.0 |
| 20260505173000 | 54 | 221 | 1.0 | 0.0 | 0.00 | 0.00 | 0.00 | 81 | 1004.0 |
| 20260505171500 | 54 | 225 | 1.0 | 0.0 | 0.00 | 0.00 | 0.00 | 79 | 1004.2 |
| 20260505170000 | 54 | 238 | 0.0 | 0.0 | 0.00 | 0.00 | 0.00 | 78 | 1004.0 |
| 20260505164501 | 54 | 226 | 0.0 | 0.0 | 0.00 | 0.00 | 0.00 | 79 | 1004.1 |
| 20260505163002 | 54 | 261 | 1.0 | 0.0 | 0.00 | 0.00 | 0.00 | 80 | 1004.1 |
| 20260505161502 | 54 | 250 | 1.0 | 0.0 | 0.00 | 0.00 | 0.00 | 79 | 1004.2 |
| 20260505153002 | 54 | 249 | 1.0 | 0.0 | 0.00 | 0.00 | 0.00 | 81 | 1004.3 |
| 20260505151501 | 54 | 294 | 2.0 | 0.0 | 0.00 | 0.00 | 0.00 | 82 | 1004.6 |
| 20260505124500 | 55 | 259 | 1.0 | 0.0 | 0.00 | 0.00 | 0.00 | 81 | 1005.4 |
| 20260505123002 | 54 | 247 | 0.0 | 0.0 | 0.00 | 0.00 | 0.00 | 83 | 1005.6 |